GW1230 Weather Reports


Display with metric or nautical units.
time (UTC)temp
F
wind
direction
speed
MPH
gust
MPH
rain 1hr
in
rain 24hr
in
rain mn
in
humidity
%
barometer
mb
20260906073134 60 8 3.0 3.0 0.00 0.00 0.00 73 1016.5
20260906072629 60 342 2.0 2.0 0.00 0.00 0.00 73 1016.3
20260906072124 60 327 2.0 2.0 0.00 0.00 0.00 73 1016.3
20260906071621 60 0 3.0 5.0 0.00 0.00 0.00 73 1016.6
20260906071115 61 330 1.0 1.0 0.00 0.00 0.00 72 1016.4
20260906070612 61 351 2.0 3.0 0.00 0.00 0.00 72 1016.4
20260906070107 61 351 3.0 5.0 0.00 0.00 0.00 72 1016.4
20260906065606 61 10 4.0 5.0 0.00 0.01 0.01 73 1016.4
20260906065102 61 352 3.0 3.0 0.00 0.01 0.01 73 1016.5
20260906064558 61 329 3.0 3.0 0.00 0.01 0.01 72 1016.5
20260906064052 61 340 3.0 6.0 0.00 0.01 0.01 72 1016.5
20260906063547 61 340 3.0 6.0 0.00 0.01 0.01 72 1016.4
20260906063044 61 3 5.0 6.0 0.00 0.01 0.01 72 1016.4
20260906062538 61 336 5.0 6.0 0.00 0.01 0.01 72 1016.5
20260906062032 61 313 0.0 0.0 0.00 0.01 0.01 71 1016.5
20260906061529 61 300 1.0 1.0 0.00 0.01 0.01 71 1016.6
20260906061028 62 311 1.0 1.0 0.00 0.01 0.01 70 1016.5
20260906060525 62 340 3.0 3.0 0.00 0.01 0.01 69 1016.3
20260906060022 62 1 3.0 5.0 0.00 0.01 0.01 69 1016.5
20260906055517 62 353 3.0 3.0 0.00 0.01 0.01 69 1016.6
20260906055012 62 337 3.0 5.0 0.00 0.01 0.01 69 1016.6
20260906054507 62 353 3.0 3.0 0.00 0.01 0.01 69 1016.5
20260906054003 62 337 2.0 2.0 0.00 0.01 0.01 69 1016.6
20260906053459 62 355 4.0 6.0 0.00 0.01 0.01 70 1016.5
20260906052954 62 9 3.0 6.0 0.00 0.01 0.01 70 1016.7
20260906052450 62 349 4.0 5.0 0.00 0.01 0.01 70 1016.6
20260906051947 62 350 3.0 3.0 0.00 0.01 0.01 70 1016.6
20260906051442 62 18 5.0 8.0 0.00 0.01 0.01 70 1016.6
20260906050937 62 6 4.0 7.0 0.00 0.01 0.01 70 1016.6
20260906050437 62 9 3.0 3.0 0.00 0.01 0.01 70 1016.6
20260906045936 63 346 2.0 2.0 0.00 0.01 0.01 70 1016.6
20260906045435 63 352 3.0 5.0 0.00 0.01 0.01 70 1016.6
20260906044932 63 3 3.0 5.0 0.00 0.01 0.01 70 1016.8
20260906044426 63 13 3.0 3.0 0.00 0.01 0.01 70 1016.8
20260906043921 63 343 6.0 7.0 0.00 0.01 0.01 70 1016.7
20260906043417 63 359 2.0 3.0 0.00 0.01 0.01 70 1016.8
20260906042913 63 343 5.0 6.0 0.00 0.01 0.01 69 1016.7
20260906042412 63 351 3.0 3.0 0.00 0.01 0.01 70 1016.7
20260906041907 63 358 4.0 6.0 0.00 0.01 0.01 70 1016.7
20260906041402 63 4 7.0 9.0 0.00 0.01 0.01 71 1017.0
20260906040857 63 342 4.0 6.0 0.00 0.01 0.01 72 1016.8
20260906040352 62 309 2.0 2.0 0.00 0.01 0.01 74 1016.9
20260906035848 62 323 3.0 5.0 0.07 0.01 0.01 74 1016.9
20260906035343 63 349 6.0 10.0 0.07 0.01 0.01 73 1017.1
20260906034838 64 326 1.0 2.0 0.00 0.00 0.00 71 1017.0
20260906034333 64 350 1.0 2.0 0.00 0.00 0.00 68 1016.9
20260906033829 65 331 0.0 0.0 0.00 0.00 0.00 64 1017.1
20260906033328 66 328 0.0 0.0 0.00 0.00 0.00 60 1016.6
20260906032825 66 329 0.0 0.0 0.00 0.00 0.00 58 1016.9
20260906032320 66 354 0.0 0.0 0.00 0.00 0.00 58 1016.7
20260906031815 66 357 1.0 2.0 0.00 0.00 0.00 57 1016.8
20260906031311 67 27 0.0 0.0 0.00 0.00 0.00 55 1016.7
20260906030810 66 11 0.0 0.0 0.00 0.00 0.00 55 1016.6
20260906030306 66 319 0.0 0.0 0.00 0.00 0.00 55 1016.7
20260906025805 66 341 0.0 0.0 0.00 0.00 0.00 55 1016.5
20260906025259 66 338 0.0 0.0 0.00 0.00 0.00 55 1016.4
20260906024758 66 341 0.0 0.0 0.00 0.00 0.00 55 1016.6
20260906024257 66 325 0.0 0.0 0.00 0.00 0.00 56 1016.6
20260906023753 66 334 0.0 0.0 0.00 0.00 0.00 57 1016.4
20260906023248 66 337 0.0 0.0 0.00 0.00 0.00 57 1016.4
20260906022744 66 311 0.0 0.0 0.00 0.00 0.00 59 1016.4
20260906022239 66 300 0.0 0.0 0.00 0.00 0.00 59 1016.4
20260906021735 67 290 0.0 0.0 0.00 0.00 0.00 57 1016.6
20260906021234 67 297 2.0 2.0 0.00 0.00 0.00 56 1016.5
20260906020728 68 301 1.0 1.0 0.00 0.00 0.00 54 1016.6
20260906020218 68 303 1.0 2.0 0.00 0.00 0.00 53 1016.3
20260906015718 68 256 3.0 3.0 0.00 0.00 0.00 53 1016.2
20260906015216 69 285 2.0 3.0 0.00 0.00 0.00 53 1016.3
20260906014711 69 299 1.0 1.0 0.00 0.00 0.00 52 1016.3
20260906014207 70 275 1.0 1.0 0.00 0.00 0.00 52 1016.5
20260906013703 70 299 1.0 1.0 0.00 0.00 0.00 52 1016.3
20260906013157 70 300 1.0 3.0 0.00 0.00 0.00 52 1016.3
20260906012657 71 278 0.0 1.0 0.00 0.00 0.00 50 1016.3
20260906012152 71 294 1.0 1.0 0.00 0.00 0.00 52 1016.3
20260906011648 72 303 1.0 1.0 0.00 0.00 0.00 51 1016.3
20260906011142 71 294 3.0 5.0 0.00 0.00 0.00 52 1016.2
20260906010637 72 278 4.0 5.0 0.00 0.00 0.00 52 1016.2
20260906010134 71 254 0.0 0.0 0.00 0.00 0.00 52 1016.1
20260906005633 70 266 5.0 6.0 0.00 0.00 0.00 54 1016.3
20260906005127 72 338 3.0 3.0 0.00 0.00 0.00 52 1016.0
20260906004626 73 306 1.0 1.0 0.00 0.00 0.00 50 1016.2
20260906004121 72 262 0.0 1.0 0.00 0.00 0.00 52 1016.2
20260906003616 73 198 3.0 3.0 0.00 0.00 0.00 52 1016.0
20260906003112 72 243 1.0 1.0 0.00 0.00 0.00 52 1016.0
20260906002607 71 210 0.0 0.0 0.00 0.00 0.00 54 1016.2
20260906002101 71 285 1.0 2.0 0.00 0.00 0.00 55 1016.1
20260906001556 71 156 4.0 5.0 0.00 0.00 0.00 55 1016.1
20260906001051 70 221 0.0 0.0 0.00 0.00 0.00 54 1016.2
20260906000547 70 200 4.0 5.0 0.00 0.00 0.00 54 1016.2
20260906000042 70 163 1.0 2.0 0.00 0.00 0.00 54 1016.1
20260905235541 70 206 2.0 2.0 0.00 0.00 0.00 54 1016.1
20260905235037 71 212 1.0 2.0 0.00 0.00 0.00 54 1016.2
20260905234532 71 276 0.0 0.0 0.00 0.00 0.00 55 1016.2
20260905234027 71 242 0.0 0.0 0.00 0.00 0.00 56 1016.4
20260905233522 70 215 3.0 3.0 0.00 0.00 0.00 58 1016.2
20260905233021 70 15 2.0 2.0 0.00 0.00 0.00 59 1016.0
20260905232517 70 118 0.0 1.0 0.00 0.00 0.00 60 1016.3
20260905232013 71 69 0.0 0.0 0.00 0.00 0.00 58 1016.3
20260905231508 71 78 0.0 1.0 0.00 0.00 0.00 59 1016.4
20260905231004 71 124 0.0 1.0 0.00 0.00 0.00 57 1016.4
20260905230503 70 261 0.0 1.0 0.00 0.00 0.00 57 1016.4
20260905230001 70 184 0.0 0.0 0.00 0.00 0.00 57 1016.6
20260905225456 70 155 2.0 3.0 0.00 0.00 0.00 61 1016.4
20260905224951 69 203 0.0 0.0 0.00 0.00 0.00 60 1016.5
20260905224446 70 187 4.0 6.0 0.00 0.00 0.00 60 1016.7
20260905223945 72 256 0.0 0.0 0.00 0.00 0.00 57 1016.5
20260905223443 70 221 0.0 0.0 0.00 0.00 0.00 60 1016.8
20260905222943 69 157 3.0 3.0 0.00 0.00 0.00 58 1016.8
20260905222438 67 214 1.0 2.0 0.00 0.00 0.00 62 1016.6
20260905221934 67 216 0.0 1.0 0.00 0.00 0.00 64 1016.8
20260905221430 67 143 0.0 0.0 0.00 0.00 0.00 63 1016.9
20260905220926 67 173 2.0 3.0 0.00 0.00 0.00 64 1017.0
20260905220422 67 239 1.0 2.0 0.00 0.00 0.00 65 1017.0
20260905215921 66 260 2.0 2.0 0.00 0.00 0.00 66 1017.1
20260905215416 66 197 3.0 5.0 0.00 0.00 0.00 66 1016.9
20260905214913 66 214 5.0 5.0 0.00 0.00 0.00 65 1017.1
20260905214409 66 200 5.0 6.0 0.00 0.00 0.00 65 1017.3
20260905213908 67 170 5.0 7.0 0.00 0.00 0.00 65 1017.2
20260905213405 67 285 0.0 0.0 0.00 0.00 0.00 65 1017.1
20260905212900 67 259 0.0 0.0 0.00 0.00 0.00 65 1017.3
20260905212400 67 181 5.0 6.0 0.00 0.00 0.00 65 1017.0
20260905211853 67 220 1.0 1.0 0.00 0.00 0.00 66 1017.1
20260905211349 67 245 1.0 2.0 0.00 0.00 0.00 67 1017.4
20260905210846 66 227 3.0 3.0 0.00 0.00 0.00 67 1017.2
20260905210345 67 202 3.0 5.0 0.00 0.00 0.00 68 1017.3
20260905205844 65 236 6.0 7.0 0.00 0.00 0.00 70 1017.2
20260905205339 66 241 0.0 2.0 0.00 0.00 0.00 69 1017.3
20260905204838 66 310 2.0 2.0 0.00 0.00 0.00 68 1017.2
20260905204335 66 218 4.0 5.0 0.00 0.00 0.00 69 1017.1
20260905203833 68 274 1.0 2.0 0.00 0.00 0.00 67 1017.4
20260905203329 68 221 3.0 5.0 0.00 0.00 0.00 66 1017.5
20260905202825 68 183 1.0 2.0 0.00 0.00 0.00 65 1017.4
20260905202320 67 275 4.0 8.0 0.00 0.00 0.00 66 1017.3
20260905201815 67 212 2.0 3.0 0.00 0.00 0.00 68 1017.4
20260905201310 67 199 4.0 5.0 0.00 0.00 0.00 66 1017.5
20260905200804 66 278 3.0 5.0 0.00 0.00 0.00 70 1017.6
20260905200300 66 268 4.0 6.0 0.00 0.00 0.00 69 1017.4
20260905195753 66 264 0.0 0.0 0.00 0.00 0.00 70 1017.4
20260905195248 67 244 2.0 5.0 0.00 0.00 0.00 68 1017.5
20260905194744 66 264 3.0 3.0 0.00 0.00 0.00 71 1017.5
20260905194243 65 268 4.0 7.0 0.00 0.00 0.00 71 1017.7
20260905193743 66 246 5.0 6.0 0.00 0.00 0.00 71 1017.6
20260905193238 67 216 3.0 5.0 0.00 0.00 0.00 70 1017.7
20260905192733 66 298 5.0 6.0 0.00 0.00 0.00 71 1017.5
20260905192230 66 238 2.0 2.0 0.00 0.00 0.00 72 1017.9
20260905191728 66 225 4.0 5.0 0.00 0.00 0.00 71 1017.6
20260905191227 67 194 2.0 2.0 0.00 0.00 0.00 71 1017.8
20260905190726 67 278 4.0 6.0 0.00 0.00 0.00 68 1017.8
20260905190225 67 249 2.0 3.0 0.00 0.00 0.00 69 1017.6
20260905185724 67 311 2.0 2.0 0.00 0.00 0.00 68 1017.7
20260905185219 68 263 4.0 6.0 0.00 0.00 0.00 68 1017.8
20260905184713 67 233 2.0 2.0 0.00 0.00 0.00 70 1017.9
20260905184212 67 252 1.0 2.0 0.00 0.00 0.00 71 1017.7
20260905183711 67 246 2.0 2.0 0.00 0.00 0.00 71 1017.8
20260905183207 66 227 3.0 3.0 0.00 0.00 0.00 72 1018.2
20260905182701 66 294 1.0 1.0 0.00 0.00 0.00 72 1018.0
20260905182201 65 270 1.0 2.0 0.00 0.00 0.00 74 1018.0
20260905181656 65 204 3.0 3.0 0.00 0.00 0.00 74 1018.1
20260905181155 64 227 4.0 6.0 0.00 0.00 0.00 76 1018.0
20260905180649 65 329 5.0 6.0 0.00 0.00 0.00 74 1018.1
20260905180145 63 312 0.0 1.0 0.00 0.00 0.00 78 1018.1
20260905175644 63 273 1.0 1.0 0.00 0.00 0.00 78 1018.3
20260905175139 62 324 2.0 2.0 0.00 0.00 0.00 79 1018.3
20260905174635 63 309 1.0 1.0 0.00 0.00 0.00 79 1018.3
20260905174131 62 286 1.0 1.0 0.00 0.00 0.00 79 1018.4
20260905173626 63 281 2.0 2.0 0.00 0.00 0.00 78 1018.2
20260905173122 64 290 1.0 1.0 0.00 0.00 0.00 77 1018.1
20260905172621 65 307 3.0 5.0 0.00 0.00 0.00 76 1018.4
20260905172116 65 277 3.0 5.0 0.00 0.00 0.00 75 1018.1
20260905171612 63 168 1.0 1.0 0.00 0.00 0.00 78 1018.1
20260905171108 63 209 2.0 2.0 0.00 0.00 0.00 78 1018.2
20260905170604 62 272 1.0 1.0 0.00 0.00 0.00 80 1017.9
20260905170059 62 242 2.0 3.0 0.00 0.00 0.00 80 1018.0
20260905165554 62 280 1.0 2.0 0.00 0.00 0.00 81 1017.7
20260905165049 62 208 2.0 2.0 0.00 0.00 0.00 82 1017.7
20260905164544 61 239 2.0 2.0 0.00 0.00 0.00 84 1017.9
20260905164038 60 196 4.0 5.0 0.00 0.00 0.00 85 1017.9
20260905163534 59 271 0.0 0.0 0.00 0.00 0.00 86 1017.9
20260905163030 59 282 0.0 0.0 0.00 0.00 0.00 87 1017.9
20260905162527 58 279 0.0 0.0 0.00 0.00 0.00 87 1018.0
20260905162021 59 257 0.0 0.0 0.00 0.00 0.00 87 1018.0
20260905161521 58 285 0.0 0.0 0.00 0.00 0.00 89 1018.0
20260905161018 57 229 2.0 2.0 0.00 0.00 0.00 89 1018.0
20260905160511 57 273 2.0 3.0 0.00 0.00 0.00 89 1017.9
20260905160011 58 251 3.0 3.0 0.00 0.00 0.00 89 1018.0
20260905155506 58 257 0.0 1.0 0.00 0.00 0.00 91 1017.9
20260905155004 58 206 1.0 2.0 0.00 0.00 0.00 92 1017.8
20260905154500 57 231 0.0 0.0 0.00 0.00 0.00 93 1017.9
20260905153955 56 236 2.0 2.0 0.00 0.00 0.00 93 1018.0
20260905153452 57 262 0.0 0.0 0.00 0.00 0.00 94 1017.9
20260905152951 56 271 0.0 0.0 0.00 0.00 0.00 95 1017.9
20260905152451 56 284 0.0 0.0 0.00 0.00 0.00 95 1018.0
20260905151946 56 288 0.0 0.0 0.00 0.00 0.00 95 1017.7
20260905151441 55 294 0.0 0.0 0.00 0.00 0.00 96 1017.7
20260905150936 55 293 0.0 0.0 0.00 0.00 0.00 96 1017.8
20260905150431 55 289 0.0 0.0 0.00 0.00 0.00 96 1017.6
20260905145927 55 291 0.0 0.0 0.00 0.00 0.00 96 1017.6
20260905145421 55 291 0.0 0.0 0.00 0.00 0.00 96 1017.3
20260905144921 55 290 0.0 0.0 0.00 0.00 0.00 96 1017.8
20260905144417 54 283 0.0 0.0 0.00 0.00 0.00 96 1017.6
20260905143915 54 293 0.0 0.0 0.00 0.00 0.00 96 1017.6
20260905143410 54 289 0.0 0.0 0.00 0.00 0.00 96 1017.4
20260905142909 54 294 0.0 0.0 0.00 0.00 0.00 96 1017.5
20260905142408 54 293 0.0 0.0 0.00 0.00 0.00 96 1017.3
20260905141904 54 291 0.0 0.0 0.00 0.00 0.00 96 1017.2
20260905141359 54 296 0.0 0.0 0.00 0.00 0.00 96 1017.3
20260905140855 53 294 0.0 0.0 0.00 0.00 0.00 96 1017.2
20260905140350 53 313 0.0 0.0 0.00 0.00 0.00 96 1017.5
20260905135848 53 302 0.0 0.0 0.00 0.00 0.00 96 1017.2
20260905135344 53 299 0.0 0.0 0.00 0.00 0.00 96 1017.2
20260905134839 53 305 0.0 0.0 0.00 0.00 0.00 96 1017.3
20260905134338 53 318 0.0 0.0 0.00 0.00 0.00 96 1017.2
20260905133833 53 321 0.0 0.0 0.00 0.00 0.00 96 1017.2
20260905133328 53 314 0.0 0.0 0.00 0.00 0.00 96 1017.1
20260905132827 54 303 0.0 0.0 0.00 0.00 0.00 96 1017.1
20260905132323 54 302 0.0 0.0 0.00 0.00 0.00 95 1017.4
20260905131817 54 307 0.0 0.0 0.00 0.00 0.00 95 1017.1
20260905131313 54 307 0.0 0.0 0.00 0.00 0.00 95 1017.1
20260905130808 54 306 0.0 0.0 0.00 0.00 0.00 95 1017.1
20260905130306 54 309 0.0 0.0 0.00 0.00 0.00 95 1017.4
20260905125802 53 308 0.0 0.0 0.00 0.00 0.00 95 1017.2
20260905125256 54 313 0.0 0.0 0.00 0.00 0.00 95 1017.1
20260905124753 54 314 0.0 0.0 0.00 0.00 0.00 95 1017.1
20260905124249 54 318 0.0 0.0 0.00 0.00 0.00 95 1017.2
20260905123744 54 327 0.0 0.0 0.00 0.00 0.00 95 1017.1
20260905123241 54 322 0.0 0.0 0.00 0.00 0.00 95 1017.0
20260905122740 54 324 0.0 0.0 0.00 0.00 0.00 95 1017.0
20260905122234 53 314 0.0 0.0 0.00 0.00 0.00 95 1017.0
20260905121729 54 317 0.0 0.0 0.00 0.00 0.00 95 1017.1
20260905121226 54 322 0.0 0.0 0.00 0.00 0.00 95 1017.0
20260905120719 54 325 0.0 0.0 0.00 0.00 0.00 95 1016.9
20260905120213 54 323 0.0 0.0 0.00 0.00 0.00 95 1016.8
20260905115708 54 333 0.0 0.0 0.00 0.00 0.00 95 1016.9
20260905115203 54 340 0.0 0.0 0.00 0.00 0.00 95 1016.7
20260905114703 53 341 0.0 0.0 0.00 0.00 0.00 95 1016.7
20260905114200 53 339 0.0 0.0 0.00 0.00 0.00 95 1016.9
20260905113655 53 319 0.0 0.0 0.00 0.00 0.00 94 1017.1
20260905113151 53 312 0.0 0.0 0.00 0.00 0.00 94 1016.9
20260905112651 53 308 0.0 0.0 0.00 0.00 0.00 94 1016.9
20260905112147 54 304 0.0 0.0 0.00 0.00 0.00 94 1017.2
20260905111646 54 307 0.0 0.0 0.00 0.00 0.00 94 1016.9
20260905111146 54 309 0.0 0.0 0.00 0.00 0.00 94 1016.7
20260905110645 54 314 0.0 0.0 0.00 0.00 0.00 94 1016.8
20260905110140 54 308 0.0 0.0 0.00 0.00 0.00 94 1016.8
20260905105635 54 306 0.0 0.0 0.00 0.00 0.00 94 1016.8
20260905105134 54 316 0.0 0.0 0.00 0.00 0.00 93 1016.9
20260905104629 54 317 0.0 0.0 0.00 0.00 0.00 93 1016.8
20260905104125 54 317 0.0 0.0 0.00 0.00 0.00 93 1016.9
20260905103620 55 335 0.0 0.0 0.00 0.00 0.00 93 1016.9
20260905103116 55 334 0.0 0.0 0.00 0.00 0.00 93 1016.9
20260905102611 55 318 0.0 0.0 0.00 0.00 0.00 93 1016.7
20260905102108 55 321 0.0 0.0 0.00 0.00 0.00 93 1017.0
20260905101606 55 317 0.0 0.0 0.00 0.00 0.00 93 1016.7
20260905101104 55 321 0.0 0.0 0.00 0.00 0.00 93 1016.7
20260905100601 55 337 0.0 0.0 0.00 0.00 0.00 93 1016.6
20260905100055 55 325 0.0 0.0 0.00 0.00 0.00 93 1016.6
20260905095549 55 328 0.0 0.0 0.00 0.00 0.00 93 1016.4
20260905095045 55 345 0.0 0.0 0.00 0.00 0.00 93 1016.6
20260905094539 55 324 0.0 0.0 0.00 0.00 0.00 92 1016.3
20260905094039 55 318 0.0 0.0 0.00 0.00 0.00 92 1016.7
20260905093533 55 313 0.0 0.0 0.00 0.00 0.00 92 1016.5
20260905093030 55 315 0.0 0.0 0.00 0.00 0.00 92 1016.5
20260905092529 55 318 0.0 0.0 0.00 0.00 0.00 91 1016.6
20260905092025 55 323 0.0 0.0 0.00 0.00 0.00 91 1016.5
20260905091524 56 346 0.0 0.0 0.00 0.00 0.00 91 1016.5
20260905091019 56 328 0.0 0.0 0.00 0.00 0.00 91 1016.3
20260905090519 56 0 0.0 0.0 0.00 0.00 0.00 90 1016.2
20260905090014 56 12 0.0 0.0 0.00 0.00 0.00 90 1016.2
20260905085512 56 346 0.0 0.0 0.00 0.00 0.00 90 1016.2
20260905085008 56 353 0.0 0.0 0.00 0.00 0.00 90 1016.6
20260905084503 56 358 0.0 0.0 0.00 0.00 0.00 89 1016.2
20260905083958 57 346 0.0 0.0 0.00 0.00 0.00 89 1016.2
20260905083453 56 356 0.0 1.0 0.00 0.00 0.00 89 1016.4
20260905082949 57 46 0.0 0.0 0.00 0.00 0.00 88 1016.3
20260905082444 57 79 1.0 1.0 0.00 0.00 0.00 88 1016.3
20260905081939 57 68 1.0 2.0 0.00 0.00 0.00 88 1016.4
20260905081434 57 63 0.0 0.0 0.00 0.00 0.00 87 1016.3
20260905080933 57 341 0.0 0.0 0.00 0.00 0.00 87 1016.4
20260905080428 57 28 1.0 1.0 0.00 0.00 0.00 86 1016.3
20260905075927 57 26 1.0 1.0 0.00 0.00 0.00 86 1016.3
20260905075422 57 10 0.0 0.0 0.00 0.00 0.00 86 1016.2
20260905074921 57 351 1.0 1.0 0.00 0.00 0.00 86 1016.2
20260905074416 57 25 2.0 3.0 0.00 0.00 0.00 86 1016.0
20260905073912 57 25 1.0 2.0 0.00 0.00 0.00 86 1016.0
20260905073407 57 26 2.0 2.0 0.00 0.00 0.00 86 1016.2